Regional Weather Roundup
Issued by NWS Charleston, SC

Current Version | Previous Version | Graphics & Text | Print | Product List | Glossary On
Versions: 1 2 3 4 5 6 7 8 9 10 11 12 13 14 15 16 17 18 19 20 21 22 23 24 25 26 27 28 29 30 31 32 33 34 35 36 37 38 39 40 41 42 43 44 45 46 47 48 49 50
000
ASUS42 KCHS 250227
RWRCHS

REGIONAL WEATHER ROUNDUP
NATIONAL WEATHER SERVICE CHARLESTON SC
900 PM EST FRI NOV 24 2017

NOTE: "FAIR" INDICATES FEW OR NO CLOUDS BELOW 12,000 FEET WITH NO
SIGNIFICANT WEATHER AND/OR OBSTRUCTIONS TO VISIBILITY.

NOT ALL STATIONS ARE QUALITY CONTROLLED. USE DATA WITH CAUTION...
ESPECIALLY DEWPOINT OBSERVATIONS.

SCZ027-030-031-034>040-042>050-250300-
...SOUTHEAST SOUTH CAROLINA...

CITY           SKY/WX    TMP DP  RH WIND       PRES   REMARKS
N CHARLESTON   CLEAR     48  41  76 NW6       29.95S
WATERFRONT PRK   N/A     56  40  55 N7        29.80S
JOHNS ISLAND   FAIR      50  41  71 NW5       29.95S
PINOPOLIS        N/A     55  45  67 N7        29.87S
MONCKS CORNER  FAIR      43  41  93 CALM      29.96R
SUMMERVILLE    FAIR      43  43 100 CALM      29.97S
BEAUFORT MCAS  CLEAR     50  43  77 CALM      29.97S
BEAUFORT ARPT  FAIR      50  43  76 NW3       29.96S HAZE
HILTON HEAD IS CLEAR     50  45  81 CALM      29.97S
WALTERBORO     CLEAR     39  37  93 CALM      29.98S
ALLENDALE      FAIR      41  39  93 CALM      29.98R

...SOUTHERN MIDLANDS AND PEE DEE...

CITY           SKY/WX    TMP DP  RH WIND       PRES   REMARKS
GEORGETOWN     FAIR      48  36  61 N3        29.96S
KINGSTREE      FAIR      39  37  93 CALM      29.96F
ORANGEBURG     CLEAR     42  39  89 CALM      29.98R
BARNWELL         N/A     39  37  93 CALM      29.98F
AIKEN          FAIR      37  36  93 CALM      30.02R
MANNING        FAIR      37  37 100 MISG      29.97S
COLUMBIA       CLEAR     41  39  93 W5        29.98R
SUMTER         CLEAR     41  35  78 CALM      29.95S
FLORENCE       CLOUDY    41  34  76 N3        29.98R
MYRTLE BEACH   MOCLDY    52  34  50 N8        29.96S
N MYRTLE BEACH CLOUDY    51  35  54 N7        29.94S

$$

GAZ063-065-086>088-099>101-113>116-118-119-134>141-150-250300-
...SOUTHEAST GEORGIA...

CITY           SKY/WX    TMP DP  RH WIND       PRES   REMARKS
SAVANNAH ARPT  CLEAR     45  43  93 NW3       29.99R
HUNTER AAF     CLEAR     46  42  86 CALM      29.95R
FORT STEWART   CLEAR     45  42  90 CALM      29.96S
STATESBORO     CLEAR     41  41 100 CALM      29.99S
SYLVANIA       CLEAR     42  41  96 CALM      30.00S
CLAXTON        FAIR      43  42  96 CALM      29.99S

...CSRA...CENTRAL AND FAR SOUTHEAST GEORGIA...

CITY           SKY/WX    TMP DP  RH WIND       PRES   REMARKS
THOMSON        CLEAR     38  36  92 CALM      30.04S
AUGUSTA-BUSH   CLEAR     41  38  89 CALM      29.99R
AUGUSTA-DANIEL CLEAR     53  37  54 CALM      29.99R
SWAINSBORO     FAIR      41  41 100 CALM      30.00S
VIDALIA        CLEAR     45  41  87 CALM      30.00R
EASTMAN        FAIR      42  36  78 CALM      30.02S
HAZLEHURST     FAIR      46  43  90 CALM      29.99R
ALMA           CLEAR     44  42  93 CALM      29.98R
WAYCROSS       CLEAR     47  44  91 CALM      29.99S
JESUP          FAIR      45  43  93 CALM      29.99S
BAXLEY         FAIR      43  43 100 CALM      29.99S
BRUNSWICK      FOG       45  43  93 CALM      29.99R VSB 1/4
SAINT SIMONS   CLEAR     52  48  86 N3        29.97R

$$

SCZ027-028-034-036>038-045-046-048>050-GAZ119-141-250300-
...LAKE AND SUPPLEMENTAL COASTAL OBSERVATIONS...

STATION/POSITION TIME  TEMP    WIND        PRES    WAVE   SWELL
                       AIR SEA DIR/SP/G            HT/PER HT/PER/DIR
                 (UTC) (F)     (DEG/KT/KT) (MB)    (FT/S) (FT/S/D)
WINYAH BAY       0145   49     330/  5     1014.0S
LAKE MURRAY      0150   49        CALM     1014.6R
ACE BASIN NERRS  0145   51        CALM     1014.0S
FORT PULASKI     0200   53 60  320/  5/  6 1015.1
SAPELO ISLAND    0200   51      20/  3     1015.0

$$

ANZ835-935-AMZ111-154-330-350-352-354-370-450-454-472-250300-
...C-MAN AND BUOY OBSERVATIONS...

STATION/POSITION TIME  TEMP    WIND        PRES    WAVE   SWELL
                       AIR SEA DIR/SP/G            HT/PER HT/PER/DIR
                 (UTC) (F)     (DEG/KT/KT) (MB)    (FT/S) (FT/S/D)
BUOY 41004       0210   62 73   10/ 17/ 21 1012.6
BUOY 41008       0150   62 65  340/ 12/ 14 1014.2S   5/ 9   3/100/ 9
FOLLY BEACH CMAN 0200   55     360/  5/  7 1014.4F
CAPERS NEARSHORE 0208   53 60   20/ 10/ 14 1013.6S
FRIPP NEARSHORE  0208   55 61  340/ 12/ 17 1013.4R


STATION/POSITION TIME  TEMP    WIND        PRES    WAVE   SWELL
                       AIR SEA DIR/SP/G            HT/PER HT/PER/DIR
                 (UTC) (F)     (DEG/KT/KT) (MB)    (FT/S) (FT/S/D)
5E ST. MARYS GA  0200      66                N/A     5/ 8   2/ 90/11
FRYING PAN BUOY  0210   62 72   20/ 19/ 23 1012.1
BUOY 41025       0210   65 70   10/ 17/ 21 1012.6
CAPE LOOKOUT NC  0200           10/ 11/ 14 1013.3F
BUOY 41002       0150   71 76  100/  8/ 12 1009.9R  10/ 9  10/ 40/ 9
BUOY 41010       NOT AVBL
ST AUGUSTINE FL  0200   62 66  330/  5/  7 1015.3R


$$



USA.gov is the U.S. government's official web portal to all federal, state and local government web resources and services.